Temp
14 14 14 15 15 15 15 15 14 14 14 14 14 14 14 14 13 14 14 13 13 14 14 15 15 15 14 14 14 14 14 14 14 15 15 15 14 14 14 14 13 13
14 14 14 15 14 14 14 14 14 14 14 14 14 14 14 13 13 13 13 13 13 14 14 14 14 14 14 14 14 14 14 14 14 15 14 14 14 14 13 13 13 13
14 14 15 15 14 14 14 14 14 14 14 14 13 13 13 13 13 13 13 13 13 14 14 14 14 14 14 14 14 14 14 14 14 14 14 14 13 13 13 13 13 13
14 14 15 14 14 14 14 14 14 14 14 13 13 13 13 13 13 12 12 13 13 14 14 14 14 14 14 14 14 14 14 14 14 14 14 13 13 13 13 13 13 13
14 14 14 14 14 14 14 14 14 14 13 13 13 13 12 12 12 12 13 13 14 14 14 14 14 14 14 14 14 14 14 14 14 14 13 13 13 12 12 12 12 12
14 14 14 14 14 14 14 14 14 14 13 13 13 12 12 12 12 12 13 14 14 14 14 14 14 14 14 14 14 14 14 13 13 13 13 13 13 12 12 12 12 12
14 14 14 14 14 14 13 13 14 13 13 13 13 12 12 12 12 13 13 14 14 14 14 14 14 14 14 14 14 13 13 13 13 13 13 12 12 12 12 12 12 12
14 14 14 14 14 13 13 13 13 13 13 13 13 12 12 12 12 13 13 14 14 14 14 13 13 13 13 13 13 13 13 13 12 13 12 12 12 12 12 12 11 11
14 14 14 14 13 13 13 13 13 13 13 13 12 12 11 12 12 13 13 14 13 13 13 13 13 13 13 13 13 13 13 12 12 12 12 12 12 12 12 11 11 11
14 14 14 13 13 13 13 13 13 13 13 12 12 11 11 12 12 13 13 13 13 13 12 12 12 12 12 12 12 12 12 12 12 12 12 12 12 12 12 11 11 10
14 14 13 13 12 12 13 13 13 13 13 12 11 11 11 12 12 12 12 13 13 12 12 12 12 12 12 12 12 12 12 12 12 12 12 12 12 11 11 11 11 10
13 13 13 13 12 12 13 13 12 12 12 11 11 11 11 12 12 12 12 12 12 12 12 12 12 12 12 12 12 11 11 11 11 12 12 11 11 11 11 11 11 11
13 13 13 13 12 12 13 13 12 12 12 11 11 11 11 12 12 12 12 12 12 12 11 11 11 11 11 11 11 11 11 11 11 11 11 11 11 11 11 11 11 11
13 13 13 13 12 12 12 12 12 12 11 11 11 11 11 11 12 12 12 12 12 11 11 11 11 11 11 11 11 11 11 11 11 11 11 11 11 11 11 11 11 10
13 13 13 13 12 12 12 12 12 11 11 11 11 11 11 11 11 12 12 12 12 11 11 11 11 11 11 11 11 11 11 11 11 11 11 11 11 11 11 11 10 10
13 13 13 12 12 12 12 12 12 11 11 11 11 11 11 11 11 11 11 11 11 11 11 11 11 11 10 10 11 11 11 11 11 11 11 11 11 11 11 11 10 10
13 13 13 12 12 12 12 12 11 11 11 11 11 11 11 11 11 11 11 11 11 11 11 11 10 10 10 10 10 10 10 11 11 11 11 11 11 11 11 11 10 10
13 13 13 12 12 12 11 11 11 11 11 11 10 10 10 11 10 10 10 10 10 10 10 10 10 10 10 10 10 10 10 10 10 11 11 11 11 11 10 10 10 10
13 13 12 12 12 11 11 11 11 11 11 10 10 10 10 10 10 10 10 10 10 10 10 9 9 9 10 9 9 9 9 10 10 10 10 10 11 10 10 10 9 9
13 13 12 12 12 11 11 11 11 11 10 10 10 10 10 10 10 10 10 10 9 9 9 9 9 9 9 9 9 9 9 9 9 9 10 10 10 10 10 9 9 9
13 13 12 12 11 11 11 11 11 11 10 10 10 10 10 10 10 10 10 10 9 9 9 9 8 8 8 8 8 8 8 8 9 9 9 9 9 9 9 9 9 9
13 12 12 11 11 11 11 11 11 11 10 10 10 10 10 10 10 10 10 10 9 9 8 8 8 8 8 8 8 8 8 8 8 8 8 9 9 9 9 9 9 8
13 12 11 11 11 11 11 11 11 11 11 10 10 10 10 10 10 10 10 9 9 9 8 8 8 8 8 8 8 8 8 8 8 7 8 8 8 8 8 8 8 8
12 12 11 11 11 11 11 11 11 11 11 11 10 10 10 10 10 10 9 9 9 9 8 8 8 8 7 7 7 7 7 7 7 7 7 7 7 8 7 7 7 7
12 12 11 11 10 10 11 11 11 11 11 10 10 10 10 10 10 9 9 8 8 8 8 8 8 7 7 7 7 7 7 6 7 7 7 7 7 7 7 6 7 7
12 12 11 11 10 10 10 11 11 11 11 10 10 10 10 9 9 9 9 8 8 8 8 7 7 7 7 7 7 7 7 6 7 7 7 7 7 7 6 6 7 7
Height
1512 1514 1516 1518 1520 1521 1523 1524 1526 1528 1530 1531 1533 1534 1535 1537 1538 1539 1540 1541 1542 1543 1543 1543 1543 1543 1544 1544 1545 1546 1546 1546 1547 1548 1549 1549 1550 1551 1551 1552 1552 1553
1510 1513 1515 1516 1518 1520 1521 1523 1525 1527 1529 1530 1531 1533 1534 1536 1537 1538 1539 1540 1541 1542 1542 1542 1542 1542 1543 1543 1544 1545 1545 1546 1546 1547 1548 1549 1550 1551 1551 1552 1552 1553
1509 1511 1513 1514 1516 1518 1520 1522 1524 1526 1527 1529 1530 1531 1533 1534 1536 1537 1538 1539 1540 1541 1541 1541 1541 1542 1542 1543 1543 1544 1545 1545 1546 1547 1548 1549 1550 1551 1551 1552 1552 1553
1507 1509 1511 1513 1515 1517 1519 1520 1522 1524 1526 1527 1528 1530 1531 1533 1535 1536 1537 1538 1539 1540 1540 1540 1540 1541 1541 1542 1542 1543 1544 1545 1546 1547 1548 1549 1550 1551 1551 1552 1552 1552
1505 1507 1510 1512 1514 1516 1517 1519 1520 1522 1524 1525 1526 1528 1530 1532 1534 1535 1536 1537 1537 1538 1539 1539 1539 1540 1541 1541 1542 1543 1543 1545 1546 1547 1548 1549 1550 1550 1551 1551 1552 1552
1504 1506 1508 1510 1512 1514 1515 1517 1519 1520 1522 1523 1525 1526 1529 1531 1533 1534 1535 1536 1536 1537 1537 1537 1538 1539 1540 1540 1541 1542 1543 1544 1546 1547 1548 1548 1549 1550 1550 1551 1552 1552
1502 1504 1506 1509 1510 1512 1514 1516 1517 1518 1520 1522 1523 1525 1528 1530 1532 1533 1534 1534 1535 1535 1536 1537 1537 1538 1539 1540 1540 1541 1543 1544 1545 1546 1547 1548 1548 1549 1550 1551 1552 1552
1500 1502 1505 1507 1509 1511 1513 1514 1515 1517 1518 1520 1522 1524 1527 1529 1531 1532 1532 1533 1534 1534 1535 1536 1537 1537 1538 1539 1540 1541 1542 1543 1544 1545 1546 1547 1548 1549 1550 1551 1551 1552
1498 1501 1503 1505 1507 1509 1511 1513 1514 1515 1517 1519 1521 1524 1526 1528 1529 1530 1531 1532 1532 1533 1534 1535 1536 1536 1537 1538 1539 1541 1541 1542 1544 1545 1546 1547 1548 1549 1549 1550 1551 1552
1497 1499 1501 1503 1505 1507 1509 1511 1512 1514 1516 1518 1520 1523 1525 1527 1528 1529 1530 1530 1531 1532 1533 1534 1535 1536 1537 1538 1539 1540 1541 1542 1543 1544 1545 1546 1547 1548 1549 1549 1550 1551
1495 1497 1500 1502 1504 1506 1508 1509 1511 1512 1515 1517 1519 1522 1524 1525 1527 1528 1529 1529 1530 1531 1532 1533 1534 1535 1536 1537 1538 1539 1540 1541 1543 1544 1545 1546 1547 1547 1548 1549 1549 1550
1493 1495 1498 1500 1502 1504 1506 1508 1509 1511 1514 1516 1518 1520 1522 1524 1526 1527 1527 1528 1529 1529 1530 1532 1533 1534 1535 1536 1537 1538 1539 1541 1542 1543 1544 1545 1546 1546 1547 1548 1549 1549
1491 1493 1496 1498 1501 1503 1505 1506 1508 1510 1513 1515 1517 1519 1521 1523 1524 1526 1526 1527 1527 1528 1529 1531 1532 1533 1534 1535 1537 1538 1539 1540 1541 1542 1543 1544 1545 1546 1547 1548 1549 1550
1489 1492 1494 1497 1500 1501 1503 1505 1507 1509 1512 1514 1516 1518 1520 1522 1523 1525 1525 1525 1526 1527 1528 1530 1531 1532 1533 1534 1535 1537 1538 1539 1540 1541 1542 1543 1544 1546 1547 1547 1548 1549
1488 1491 1493 1496 1498 1500 1502 1503 1505 1508 1511 1513 1515 1517 1519 1521 1522 1523 1524 1524 1525 1526 1527 1529 1530 1531 1532 1533 1534 1536 1537 1538 1540 1540 1541 1542 1544 1545 1546 1547 1548 1548
1486 1489 1492 1494 1496 1498 1500 1502 1504 1507 1509 1512 1514 1516 1518 1519 1521 1521 1522 1523 1524 1525 1526 1527 1529 1530 1531 1532 1534 1535 1536 1537 1538 1539 1540 1541 1543 1544 1545 1546 1546 1547
1484 1487 1490 1493 1494 1497 1498 1500 1503 1506 1508 1511 1513 1515 1517 1518 1519 1519 1520 1522 1523 1524 1525 1526 1528 1529 1530 1531 1533 1534 1535 1536 1537 1538 1539 1540 1542 1543 1544 1545 1545 1546
1482 1485 1488 1491 1493 1495 1497 1499 1502 1504 1507 1510 1511 1514 1515 1516 1517 1518 1519 1521 1522 1523 1524 1525 1527 1528 1529 1530 1531 1533 1534 1535 1536 1537 1538 1540 1541 1542 1543 1544 1544 1545
1481 1484 1487 1489 1491 1493 1495 1497 1500 1503 1505 1508 1510 1512 1514 1515 1516 1517 1518 1519 1521 1522 1523 1524 1525 1527 1528 1529 1530 1532 1533 1534 1535 1536 1538 1539 1540 1541 1542 1543 1543 1544
1480 1482 1485 1488 1489 1492 1494 1496 1498 1501 1504 1507 1509 1511 1512 1513 1515 1516 1517 1518 1519 1521 1522 1523 1524 1526 1527 1528 1529 1531 1532 1533 1534 1536 1537 1538 1539 1540 1541 1542 1542 1543
1478 1481 1484 1486 1488 1490 1492 1494 1497 1499 1502 1505 1507 1509 1511 1512 1514 1515 1516 1517 1518 1520 1521 1522 1523 1525 1526 1527 1528 1529 1531 1532 1533 1534 1535 1536 1538 1538 1539 1540 1541 1542
1476 1479 1482 1484 1487 1489 1491 1493 1495 1498 1501 1503 1506 1508 1510 1511 1512 1514 1515 1516 1517 1519 1520 1521 1522 1523 1524 1525 1527 1528 1529 1531 1532 1533 1534 1535 1536 1537 1538 1539 1539 1540
1475 1478 1481 1483 1485 1487 1489 1491 1493 1496 1499 1502 1504 1506 1508 1509 1511 1512 1513 1514 1516 1517 1518 1519 1521 1522 1523 1524 1525 1526 1528 1529 1530 1531 1532 1533 1535 1536 1537 1537 1538 1539
1473 1476 1479 1481 1483 1485 1487 1489 1491 1494 1497 1500 1502 1505 1507 1508 1509 1511 1512 1513 1514 1516 1517 1518 1519 1520 1522 1523 1524 1525 1526 1527 1528 1530 1531 1532 1533 1534 1535 1536 1537 1537
1471 1474 1477 1479 1481 1483 1485 1487 1490 1492 1495 1498 1501 1503 1505 1507 1508 1509 1510 1511 1513 1514 1515 1517 1518 1519 1520 1521 1522 1523 1524 1525 1527 1528 1528 1529 1530 1532 1533 1534 1535 1536
1468 1471 1474 1477 1479 1481 1484 1486 1488 1491 1494 1497 1500 1502 1504 1505 1506 1508 1509 1510 1512 1513 1514 1515 1516 1518 1520 1520 1521 1522 1523 1524 1525 1526 1526 1527 1528 1530 1531 1532 1533 1534
Wind_Speed
35 34 32 31 31 30 29 28 26 25 24 23 21 21 22 22 22 21 21 19 16 12 12 11 12 12 12 13 13 13 11 10 10 11 12 12 12 12 12 11 11 10
35 34 32 31 30 29 28 27 24 23 22 21 20 20 22 22 21 20 20 17 13 11 12 10 9 10 12 12 12 11 10 9 10 11 12 12 12 11 11 10 10 9
36 34 33 32 30 28 27 26 23 21 20 19 20 21 21 21 20 20 18 14 11 12 12 10 9 10 12 12 12 10 9 10 11 13 13 12 11 11 11 10 10 9
36 34 33 31 29 27 26 26 24 21 19 19 21 22 21 21 20 19 16 13 12 13 13 11 10 11 13 12 12 11 11 12 13 14 14 13 12 11 11 10 10 10
35 33 32 30 28 26 26 25 24 22 21 21 23 23 22 21 19 17 14 13 13 12 12 11 11 12 13 13 12 12 12 14 15 15 14 13 13 11 11 11 11 11
34 33 31 29 27 26 26 25 24 23 22 24 24 23 22 20 17 15 14 14 13 11 11 12 13 13 14 13 13 13 14 15 15 15 14 13 13 12 12 12 12 12
35 34 31 29 27 26 26 24 23 23 24 26 25 23 22 20 17 15 15 13 13 12 13 13 14 14 15 14 14 15 15 16 15 15 14 14 14 13 13 13 12 12
35 33 31 29 28 27 26 24 23 23 25 26 25 23 21 19 17 16 15 13 12 13 14 14 15 15 15 15 15 16 16 16 16 16 15 14 14 13 13 13 12 12
35 33 31 29 28 27 26 24 23 24 26 25 24 23 21 18 17 16 15 12 12 13 14 15 16 16 15 15 16 16 16 17 17 17 16 15 14 14 14 14 13 12
35 33 32 30 29 28 26 23 23 25 26 25 25 24 21 19 18 17 14 12 12 13 14 16 17 16 16 16 16 16 16 18 18 17 16 15 14 14 14 14 14 13
35 34 32 31 30 28 25 23 24 26 27 26 26 24 22 20 18 17 14 13 12 12 14 16 17 16 16 16 16 17 17 18 18 18 16 15 15 14 15 14 14 13
35 34 33 31 30 28 26 24 25 27 28 27 26 24 22 21 18 16 14 12 11 12 14 16 16 16 16 17 17 18 19 19 19 18 17 16 16 15 15 14 14 12
36 34 33 31 30 28 26 25 26 27 29 28 26 25 23 21 19 16 13 11 11 12 14 15 16 16 17 17 18 19 20 20 19 19 18 17 17 15 14 14 12 10
36 34 33 32 30 28 25 24 26 28 29 28 27 25 23 21 19 16 13 11 11 13 14 15 16 16 17 18 19 20 20 20 19 19 19 18 16 15 14 13 12 11
36 35 33 31 30 28 24 24 28 30 30 29 27 25 23 21 19 16 13 12 12 13 15 16 16 17 18 19 19 20 20 20 20 20 19 18 16 15 14 13 12 12
37 35 33 31 30 28 24 26 30 32 31 29 27 25 23 21 18 15 14 13 13 14 15 17 18 18 18 19 19 19 20 20 20 20 19 18 16 15 14 14 13 13
37 35 32 31 30 27 25 29 32 33 31 29 27 25 23 21 18 15 15 14 13 13 15 17 18 18 18 19 19 20 20 20 20 20 19 18 16 15 14 14 14 15
36 34 31 31 30 27 27 33 35 33 32 29 26 25 23 20 17 16 16 15 14 14 15 17 18 18 18 19 20 20 20 20 20 20 19 18 17 15 15 14 14 15
36 33 31 32 31 28 30 36 36 34 32 29 27 25 23 20 17 17 17 16 15 15 15 17 17 17 18 19 19 19 20 20 20 20 19 18 17 16 15 15 14 15
35 33 32 33 30 28 34 38 36 34 32 29 27 25 24 21 19 19 18 17 16 15 15 17 17 17 18 18 19 19 19 20 20 20 20 19 17 16 16 16 15 15
35 34 33 31 29 30 36 38 36 34 32 30 28 25 24 22 20 19 18 17 16 15 16 17 17 18 18 18 18 18 19 20 20 21 20 19 18 17 17 16 15 15
37 34 32 30 28 32 38 37 36 36 34 32 29 26 24 23 21 21 20 19 17 16 17 18 18 18 19 18 18 18 19 19 20 21 21 20 19 19 17 16 16 16
35 32 32 30 29 34 39 38 37 37 36 33 30 27 26 25 24 23 22 20 18 17 18 19 19 19 19 19 19 19 19 20 20 20 20 20 20 20 18 17 17 17
34 32 32 31 29 34 39 40 39 39 37 34 31 28 27 26 26 25 23 21 19 18 18 19 20 20 20 20 19 20 20 20 20 20 20 20 21 21 19 18 18 17
34 32 31 30 29 33 38 40 41 41 38 35 31 28 28 28 27 25 24 22 20 19 19 20 21 20 20 20 20 21 21 21 20 20 21 22 23 23 21 20 19 19
33 31 30 29 28 31 36 40 41 41 39 35 31 29 30 29 27 24 23 22 21 21 21 22 22 21 20 20 20 21 21 21 21 22 22 23 24 24 23 21 21 20
Wind_Direction
216 218 218 219 221 222 223 224 223 219 217 220 221 219 216 212 211 214 220 225 227 232 234 232 234 235 228 221 220 219 219 223 230 235 235 229 221 214 207 204 205 208
216 217 218 220 222 222 224 227 228 223 220 222 220 214 211 209 210 215 222 226 225 226 227 223 225 225 217 216 218 218 221 226 230 230 224 214 206 200 201 201 200 202
216 216 218 221 223 222 223 226 228 226 223 221 215 210 209 210 212 216 222 224 220 220 219 215 218 221 215 214 217 218 224 228 228 223 210 199 196 195 196 197 199 199
214 215 217 220 222 222 224 226 225 224 222 217 211 209 210 211 213 217 220 218 213 211 212 213 217 218 215 217 219 219 221 222 222 215 202 193 192 194 196 197 198 198
214 214 216 218 220 222 225 227 226 225 221 214 211 211 211 211 214 216 215 214 213 211 213 217 219 216 215 219 219 218 219 218 214 207 199 194 192 193 196 198 199 197
213 213 214 217 218 221 224 226 229 229 220 212 212 213 210 210 212 212 211 215 219 221 223 223 220 216 216 217 215 214 217 215 209 202 197 197 196 194 196 199 200 197
211 212 214 216 217 219 222 225 230 228 216 211 213 212 209 208 207 207 210 215 220 224 226 224 220 216 214 212 210 210 211 210 206 201 198 200 201 200 199 200 200 198
211 211 213 214 216 217 221 226 228 220 211 211 211 209 207 207 204 206 210 213 218 222 223 219 216 214 212 209 208 208 207 205 203 203 201 202 205 204 202 200 197 198
211 211 212 214 215 217 222 226 223 214 210 210 208 205 206 204 205 210 214 215 218 220 219 217 213 211 210 209 208 208 207 204 203 205 205 205 207 207 205 200 196 196
211 213 213 213 215 218 223 226 220 212 209 207 205 205 206 205 206 211 214 215 217 219 218 216 212 210 208 208 207 207 208 208 206 205 206 208 209 209 206 200 197 198
213 215 215 214 215 219 223 223 216 210 207 205 205 206 207 208 209 213 214 215 217 220 220 216 213 211 209 207 206 206 209 210 209 208 207 208 208 208 207 203 202 203
213 215 215 214 214 218 222 220 213 208 205 204 204 206 208 209 212 218 217 213 216 221 221 217 213 211 211 210 208 207 208 210 211 210 209 209 209 208 207 207 210 209
212 214 216 215 215 218 222 218 211 207 205 204 204 207 211 211 214 220 217 210 214 220 220 217 214 212 211 211 211 210 210 210 210 210 211 211 212 212 211 212 215 211
210 214 215 215 215 219 222 217 209 206 204 203 204 208 213 215 219 222 216 209 213 218 218 216 214 214 213 213 214 213 212 212 211 212 214 216 216 215 214 214 211 204
209 213 214 214 215 219 222 215 206 203 201 202 206 211 215 218 222 222 215 211 214 216 217 216 214 216 216 216 217 215 214 214 214 216 218 220 221 217 213 212 207 204
208 212 213 213 216 221 221 210 201 198 200 202 207 212 215 218 220 217 213 215 217 218 218 217 215 216 218 219 220 219 218 218 217 219 221 222 224 222 215 209 206 208
207 212 214 214 217 222 217 202 196 197 200 203 207 211 214 217 218 216 214 216 219 222 223 220 216 216 217 219 220 221 221 222 222 222 223 224 225 224 218 212 211 213
208 212 213 213 218 223 210 196 195 198 201 204 208 210 213 216 217 218 218 218 220 224 226 223 218 217 218 219 220 220 221 223 225 226 226 226 227 224 219 217 218 215
209 213 212 213 220 220 202 194 196 200 202 205 208 210 214 217 220 220 220 220 222 225 226 224 221 219 220 220 220 220 220 222 225 228 229 229 229 226 220 221 223 218
210 213 213 215 221 213 197 194 198 202 204 208 211 212 216 220 223 222 221 221 225 228 228 227 225 223 222 222 221 221 221 222 225 228 230 232 232 227 224 225 226 219
213 214 214 218 219 205 195 196 201 203 205 210 213 215 218 224 227 225 226 227 228 230 231 230 229 226 225 225 224 224 224 224 226 228 230 232 231 228 226 228 227 220
214 214 216 220 214 200 196 199 203 205 207 211 215 218 220 226 229 228 231 231 228 231 232 231 230 228 228 228 227 228 228 227 228 229 229 230 230 229 228 226 226 222
213 217 218 217 209 199 198 203 206 207 209 212 216 218 219 225 229 228 230 229 227 233 235 233 231 229 229 231 231 231 232 230 229 229 229 230 230 232 231 227 225 223
218 219 215 213 210 202 201 205 208 209 211 214 217 219 222 227 229 229 229 228 229 237 241 238 235 233 232 234 234 235 235 233 231 229 228 228 230 232 232 229 227 224
218 216 213 216 215 206 203 207 209 209 211 214 218 224 226 227 228 228 228 228 231 239 244 242 237 234 235 236 237 238 239 237 236 233 229 229 231 230 228 227 229 229
216 214 216 221 221 211 206 208 210 210 212 213 219 227 227 225 226 228 229 231 235 239 241 241 238 235 236 238 240 242 243 244 243 239 235 231 230 228 226 226 230 233